Total_Precipitation_Accumulation
0.23 0.51 1.05 1.57 2.74 2.99 2.18 1.23 0.87 0.78 0.73 0.72 0.66 0.62 0.76 1.06 1.57 2.61 2.44 1.84 1.68 1.98 2.66 3.53 3.93 3.31 2.98 2.99 2.90 3.04 2.98 2.91 3.13 3.39 3.43 3.43 3.56 3.88 3.90 3.83 3.85 4.04 3.93 3.57 3.42 3.19 2.90 3.05 3.15
0.45 0.86 1.43 2.17 3.19 2.76 1.94 1.02 0.73 0.66 0.59 0.59 0.61 0.53 0.57 0.69 0.70 1.18 1.70 1.82 1.64 1.67 2.10 2.68 3.22 2.83 2.64 2.62 2.72 2.85 2.89 2.87 3.01 3.16 3.36 3.48 3.55 3.87 4.05 3.91 3.95 4.17 3.84 3.57 3.35 3.08 2.86 2.86 2.70
0.74 1.20 1.88 2.73 2.43 1.75 1.38 0.83 0.65 0.63 0.70 0.81 0.88 0.62 0.64 0.97 0.90 1.18 1.42 1.42 1.48 1.57 1.87 2.40 2.63 2.57 2.49 2.48 2.70 2.83 2.91 2.89 3.00 3.18 3.34 3.57 3.80 3.97 4.19 4.12 4.16 4.25 4.12 3.74 3.33 3.17 2.99 2.76 2.52
0.97 1.54 2.03 2.28 1.43 0.83 0.73 0.60 0.59 0.67 0.95 1.06 1.01 0.94 0.88 0.94 0.93 1.06 1.06 1.11 1.36 1.64 1.88 2.15 2.38 2.41 2.48 2.42 2.71 2.93 3.05 2.95 2.95 3.18 3.25 3.49 3.88 4.23 4.45 4.35 4.37 4.44 4.30 3.88 3.45 3.16 2.91 2.68 2.53
1.12 1.85 2.53 1.98 0.95 0.62 0.50 0.40 0.42 0.58 0.85 1.12 1.04 1.22 1.43 1.33 1.05 0.95 0.93 1.08 1.28 1.59 1.93 2.05 2.29 2.43 2.64 2.72 2.88 3.06 3.05 2.90 2.89 2.97 2.94 3.18 3.77 4.19 4.43 4.52 4.51 4.49 4.30 3.92 3.53 3.13 2.85 2.66 2.60
1.58 2.41 2.21 1.44 0.93 0.56 0.42 0.36 0.41 0.60 0.83 1.03 1.15 1.38 1.68 1.56 1.22 1.05 1.02 1.21 1.33 1.42 1.82 2.07 2.46 2.58 2.67 2.87 3.19 3.34 3.09 2.98 2.93 2.99 2.91 3.11 3.49 3.96 4.29 4.57 4.63 4.43 4.23 3.84 3.54 3.24 2.98 2.75 2.71
1.63 2.13 1.65 1.07 0.82 0.57 0.42 0.39 0.46 0.61 0.77 1.03 1.25 1.50 1.66 1.83 1.53 1.22 1.32 1.40 1.69 1.48 1.66 2.02 2.45 2.66 2.80 2.94 3.25 3.39 3.37 3.33 3.28 3.21 3.07 3.17 3.50 3.91 4.32 4.62 4.57 4.49 4.44 4.06 3.73 3.36 3.09 2.96 2.82
1.19 1.30 1.10 0.85 0.71 0.54 0.39 0.37 0.45 0.60 0.91 1.11 1.16 1.49 1.77 1.67 1.56 1.50 1.62 1.68 1.87 1.83 1.74 1.88 2.29 2.72 2.86 2.92 3.20 3.48 3.47 3.44 3.48 3.49 3.40 3.61 3.79 3.91 4.17 4.44 4.73 4.77 4.71 4.40 4.05 3.60 3.36 3.26 2.93
0.85 1.23 1.08 0.69 0.54 0.51 0.43 0.46 0.47 0.51 0.75 0.91 1.03 1.13 1.14 1.25 1.52 1.59 1.79 2.02 2.11 2.10 2.08 2.11 2.16 2.32 2.52 2.62 2.90 3.56 3.62 3.53 3.58 3.79 3.90 4.17 4.60 4.66 4.78 4.71 5.04 5.17 5.08 4.99 4.61 4.19 3.76 3.51 3.14
0.71 0.95 0.74 0.40 0.32 0.36 0.38 0.43 0.52 0.60 0.94 1.31 1.38 1.54 1.31 1.42 1.61 1.61 1.69 1.83 2.08 2.21 2.22 2.45 2.31 2.21 2.33 2.33 3.18 4.11 4.02 3.93 4.04 4.24 4.37 4.85 5.14 5.54 5.04 5.46 5.86 6.02 6.06 5.98 5.63 5.29 4.48 3.64 3.10
0.44 0.47 0.34 0.23 0.21 0.21 0.31 0.38 0.36 0.57 1.07 1.52 1.63 1.76 1.67 1.68 1.75 1.82 1.94 2.04 2.30 2.48 2.33 2.29 2.42 2.55 2.61 2.77 3.19 3.71 4.20 4.32 4.42 4.38 4.42 4.79 4.77 5.08 5.29 5.78 6.60 6.77 6.31 5.92 6.09 5.91 4.71 4.06 3.99
0.26 0.22 0.19 0.18 0.17 0.20 0.28 0.35 0.42 0.58 1.11 1.42 1.31 1.31 1.45 1.74 1.91 2.04 2.41 2.63 2.92 3.06 3.01 3.03 3.02 3.05 3.14 3.01 3.04 3.20 3.52 3.62 3.71 3.97 4.10 4.30 4.78 5.01 5.24 5.73 5.88 6.00 5.85 6.16 6.06 5.93 5.22 4.72 4.23
0.23 0.18 0.15 0.17 0.18 0.20 0.27 0.39 0.51 0.66 0.98 1.07 0.94 1.02 1.53 1.81 2.06 2.45 2.64 2.89 3.18 3.57 3.76 4.36 4.31 3.81 3.59 3.44 3.37 3.06 3.27 3.09 2.95 3.28 3.74 3.89 4.23 4.62 4.92 4.94 5.04 4.82 5.12 5.55 5.79 5.28 5.29 5.08 4.81
0.15 0.16 0.18 0.21 0.21 0.24 0.31 0.39 0.68 0.81 0.89 0.93 0.94 1.28 1.79 2.28 2.45 2.77 3.11 3.56 3.94 4.40 4.37 4.60 5.13 4.56 4.00 3.58 3.52 3.38 3.17 3.18 3.04 3.27 3.36 3.69 3.83 3.99 4.24 4.30 4.44 4.31 4.52 4.79 4.84 4.76 5.14 5.12 4.95
0.15 0.21 0.33 0.32 0.30 0.33 0.41 0.71 0.95 1.02 0.96 1.12 1.24 1.49 2.10 2.80 2.74 3.03 3.39 3.94 4.46 4.92 5.03 5.10 5.40 5.14 4.77 4.28 3.82 3.51 3.37 3.18 3.23 3.36 3.22 3.31 3.51 3.64 3.71 3.81 3.90 4.00 3.96 4.15 4.25 4.34 4.63 4.78 4.74
0.24 0.38 0.51 0.41 0.32 0.37 0.54 1.20 1.23 1.10 1.08 1.29 1.48 1.73 2.29 3.02 3.07 3.36 3.81 4.33 5.01 5.46 5.74 5.81 5.53 5.59 5.37 4.84 4.38 4.09 3.85 3.69 3.58 3.25 3.11 2.95 3.01 3.01 3.16 3.13 3.13 3.37 3.48 3.68 4.03 4.15 4.46 4.78 4.87
0.34 0.48 0.56 0.46 0.35 0.37 0.48 1.05 1.06 0.85 1.12 1.36 1.59 1.90 2.30 2.68 3.16 3.72 4.19 4.73 5.60 6.50 6.97 6.80 6.24 5.97 5.65 5.15 4.72 4.60 4.48 4.21 3.92 3.77 3.55 3.28 2.95 2.82 2.92 3.06 3.17 2.91 3.09 3.36 3.27 3.86 4.22 4.62 4.72
0.23 0.30 0.46 0.49 0.34 0.40 0.54 0.69 0.89 0.92 1.15 1.42 1.60 1.78 2.14 2.42 2.78 3.49 4.08 4.73 5.65 6.81 7.51 7.42 6.79 6.08 5.54 5.22 4.92 4.92 4.69 4.30 3.89 3.79 3.77 3.43 3.25 2.97 3.06 2.94 2.76 2.57 2.85 3.29 3.49 4.04 4.15 4.14 4.18
0.15 0.23 0.30 0.37 0.30 0.42 0.59 0.73 0.91 1.07 1.31 1.43 1.54 1.62 1.88 2.16 2.55 3.30 3.99 4.47 5.09 5.89 6.42 6.31 5.71 5.33 4.93 4.46 4.01 4.09 4.01 3.79 3.58 3.40 3.27 3.34 3.27 3.14 3.26 2.92 3.10 2.73 2.81 2.99 3.15 3.56 3.82 3.76 3.72
0.13 0.21 0.28 0.31 0.26 0.30 0.54 0.85 1.00 1.08 1.30 1.29 1.33 1.40 1.60 2.01 2.65 3.43 4.01 4.12 4.10 4.35 4.58 4.08 3.91 4.00 3.73 3.57 3.58 3.58 3.50 3.23 3.10 3.18 3.49 3.15 3.15 3.07 2.87 3.04 2.81 2.77 3.04 3.08 3.23 3.55 3.68 3.60 3.68
0.15 0.18 0.21 0.30 0.31 0.40 0.63 1.12 1.32 1.16 1.22 1.17 1.19 1.42 1.88 2.31 2.74 3.24 3.39 3.36 3.20 3.14 3.10 2.90 2.88 3.30 3.32 3.42 3.50 3.54 3.59 3.42 3.31 3.23 3.47 3.08 2.82 2.77 2.85 2.82 2.89 3.08 2.79 3.12 3.35 3.36 3.63 3.71 3.57
0.15 0.13 0.11 0.16 0.28 0.58 0.78 1.39 1.64 1.45 1.37 1.13 1.26 1.70 2.15 2.46 2.72 2.75 2.31 2.13 2.18 2.26 2.36 2.62 2.78 3.03 2.99 3.19 3.20 3.16 2.97 2.86 2.84 2.86 3.07 3.12 2.80 2.67 2.67 2.82 3.16 3.32 3.05 3.35 2.87 3.05 3.45 3.68 3.57
0.11 0.12 0.11 0.16 0.31 0.67 0.95 1.43 1.76 1.62 1.38 1.14 1.14 1.20 1.62 1.79 1.77 1.72 1.60 1.54 1.69 1.97 2.20 2.54 2.74 2.87 2.85 2.88 3.04 3.27 3.20 3.22 3.10 3.04 3.33 3.35 3.37 3.12 2.77 2.81 3.12 3.31 3.30 3.43 3.24 3.47 3.23 3.18 3.20
0.10 0.15 0.25 0.33 0.52 1.12 1.23 1.31 1.72 1.54 1.28 1.15 1.00 0.91 1.16 1.24 1.15 1.27 1.37 1.55 1.80 1.95 2.01 2.23 2.44 2.76 2.80 2.80 2.93 3.06 3.23 3.52 3.48 3.41 3.25 3.07 3.17 3.10 2.84 2.87 3.26 3.28 3.27 3.41 3.27 3.28 3.15 3.18 3.21
0.09 0.16 0.45 0.87 1.19 1.35 1.03 1.15 1.54 1.16 0.92 0.86 0.79 0.74 0.83 0.93 1.05 1.23 1.40 1.62 1.72 1.75 1.71 1.86 1.97 2.24 2.51 2.65 2.76 2.96 3.18 3.34 3.27 3.34 3.27 3.10 2.83 2.69 2.79 2.91 3.26 3.21 3.18 3.13 3.21 3.17 3.20 3.28 3.33
0.09 0.12 0.25 0.45 0.60 0.80 0.97 1.43 1.56 1.10 0.73 0.60 0.63 0.66 0.71 0.88 1.00 1.06 1.25 1.32 1.39 1.56 1.72 1.89 1.92 1.96 2.07 2.21 2.42 2.58 2.66 2.83 2.86 3.21 3.09 2.99 2.82 2.67 2.77 2.88 2.81 2.80 2.91 2.79 3.15 2.97 2.96 3.07 3.12
0.08 0.08 0.10 0.14 0.23 0.56 1.11 1.35 1.32 0.94 0.75 0.75 0.81 0.86 0.85 0.86 0.99 0.97 0.98 1.19 1.31 1.27 1.35 1.56 1.70 1.82 1.95 2.05 2.22 2.24 2.27 2.39 2.63 2.71 2.57 2.41 2.52 2.63 2.74 2.72 2.79 2.82 2.83 2.87 3.13 2.98 3.02 3.21 3.02
0.08 0.09 0.10 0.14 0.26 0.48 0.92 1.48 1.68 1.31 0.98 0.87 1.01 0.93 0.84 0.82 0.91 0.99 0.99 1.08 1.17 1.21 1.35 1.45 1.59 1.78 1.88 1.95 2.10 1.98 2.03 2.11 2.36 2.49 2.52 2.40 2.31 2.48 2.64 2.70 2.82 2.86 2.81 2.90 3.10 2.88 3.06 3.15 3.04
0.10 0.11 0.12 0.17 0.19 0.31 0.72 1.10 1.04 1.10 1.00 0.85 0.87 0.85 0.80 0.75 0.80 0.93 0.96 1.06 1.11 1.12 1.27 1.45 1.65 1.80 1.77 1.84 1.91 1.99 2.06 2.21 2.29 2.28 2.34 2.39 2.46 2.60 2.70 2.82 2.89 2.87 2.87 3.01 3.09 2.89 3.04 3.00 3.10
0.12 0.12 0.14 0.18 0.21 0.21 0.41 0.69 0.65 0.71 0.91 1.16 1.08 0.89 0.90 0.93 0.87 0.94 0.95 0.99 1.00 1.05 1.15 1.33 1.57 1.74 1.84 1.88 2.00 2.14 2.21 2.33 2.40 2.31 2.41 2.62 2.68 2.76 2.85 2.94 3.01 2.85 2.92 3.07 2.98 2.93 3.00 3.03 2.97